Location: Strawberry
(33.0916°N, 80.0306°W)
Time: 01:48:32
(UTC+00:00)

Hubble Space Telescope - Pass Details

Date: 07 December 2022
Orbit: 529 x 532 km, 28.5° (Epoch: 06 February)

Event Time Altitude Azimuth Distance (km) Brightness Sun altitude
Exits shadow 10:00:49 15° 174° (S) 1,465 3.1 -26.4°
Maximum altitude 10:01:43 16° 159° (SSE) 1,417 3.2 -26.2°
Drops below altitude 10° 10:04:16 10° 120° (ESE) 1,761 4.3 -25.7°
Sets 10:07:12 0° 98° (E) 2,650 5.7 -25.1°
